カタログに戻る

FENGYUN 1C DEB

運用中SSO
NORAD 31353·DEBRIS·🇨🇳 China

打ち上げ May 10, 1999 から Taiyuan Satellite Launch Center

Loading…

次のパス (今後24時間)

TLE

古いSource: Space-Track

元期: Sep 3, 2026, 01:28 UTC

1 31353U 99025BRH 26246.06113791  .00001184  00000-0  35781-3 0  9999
2 31353  99.0040 185.5924 0226886  19.1949 341.7610 14.30669484  2018

AllMySatでFENGYUN 1C DEBをリアルタイム追跡

Download on the App Store